Regional Weather Roundup
Issued by NWS

Home | Current Version | Previous Version | Graphics & Text | Print | Product List | Glossary On
Versions: 1 2 3 4 5 6 7 8 9 10 11 12 13 14 15 16 17 18 19 20 21 22 23 24 25 26 27 28 29 30 31 32 33 34 35 36 37 38 39 40 41 42 43 44 45 46 47 48 49 50
000
ASUS45 KPSR 202010
RWRAZ

ARIZONA REGIONAL HOURLY WEATHER ROUNDUP
NATIONAL WEATHER SERVICE PHOENIX AZ
100 PM MST SAT SEP 20 2014

NOTE: FAIR INDICATES FEW OR NO CLOUDS BELOW 12,000 FEET WITH NO
SIGNIFICANT WEATHER AND/OR OBSTRUCTIONS TO VISIBILITY.

AZZ001>003-036-202100-
NORTHWEST ARIZONA

CITY           SKY/WX    TMP DP  RH WIND       PRES   REMARKS
BULLHEAD CITY  SUNNY     99  48  18 S7        29.82F
KINGMAN        MOSUNNY   89  46  22 SW12G17   30.01F
$$

AZZ004>008-015-016-018-202100-
NORTH CENTRAL ARIZONA

CITY           SKY/WX    TMP DP  RH WIND       PRES   REMARKS
GRAND CANYON   PTSUNNY   77  48  35 E12       30.22F
PRESCOTT       MOSUNNY   84  50  30 SE6       30.11F
FLAGSTAFF      MOSUNNY   78  44  29 E8G21     30.25F
PAYSON         MOSUNNY   82  57  42 NW7G16    30.14F
PAGE           SUNNY     91  46  21 N7        30.05F
$$

AZZ009>014-017-202100-
NORTHEAST ARIZONA

CITY           SKY/WX    TMP DP  RH WIND       PRES   REMARKS
WINSLOW        MOSUNNY   87  49  26 VRB3      30.09F
SAINT JOHNS    SUNNY     85  49  28 SW8       30.11F
WINDOW ROCK    MOSUNNY   83  36  18 E8        30.21
SHOW LOW       PTSUNNY   77  46  33 S3        30.20F
$$

AZZ023-202100-
GREATER PHOENIX AREA

CITY           SKY/WX    TMP DP  RH WIND       PRES   REMARKS
PHOENIX        PTSUNNY   95  63  34 VRB3      29.84F
BUCKEYE          N/A     95  63  34 SW5       29.86F
GLENDALE       PTSUNNY   93  57  29 CALM      29.86F
LUKE AFB       MOSUNNY   95  57  27 CALM      29.84F
DEER VALLEY    MOSUNNY   92  62  36 S6        29.87F
SCOTTSDALE     MOSUNNY   92  63  38 VRB6      29.89F
MESA-FALCON    PTSUNNY   91  63  38 W6        29.87
MESA-GATEWAY   MOSUNNY   93  64  38 SW5       29.89F
CHANDLER       PTSUNNY   93  63  36 VRB6      29.87F
$$

AZZ027-028-202100-
SOUTHWEST MARICOPA COUNTY AND PINAL COUNTY

CITY           SKY/WX    TMP DP  RH WIND       PRES   REMARKS
CASA GRANDE    MOSUNNY   95  64  36 S5        29.88F
$$

AZZ503-504-507>509-202100-
SOUTHEAST ARIZONA

CITY           SKY/WX    TMP DP  RH WIND       PRES   REMARKS
TUCSON         CLOUDY    86  65  49 SE13      30.00F
DAVIS-MONTHAN  MOSUNNY   84  67  56 S8        29.98F
RYAN FIELD       N/A     86  66  51 S5        29.98
NOGALES        PTSUNNY   80  63  55 NW5       30.07F
SIERRA VISTA   MOSUNNY   75  63  66 NW8       30.11F
DOUGLAS        MOSUNNY   83  62  49 VRB5      30.06F
SAFFORD        MOSUNNY   88  62  41 VRB3      29.96F
$$

AZZ020-021-025-026-031-202100-
SOUTHWEST ARIZONA

CITY           SKY/WX    TMP DP  RH WIND       PRES   REMARKS
YUMA           MOSUNNY  100  53  20 SE15G22   29.79F
$$

CAZ031-033-041-043-047-048-061-202100-
SOUTHERN CALIFORNIA

CITY           SKY/WX    TMP DP  RH WIND       PRES   REMARKS
DOWNTOWN L.A.  CLOUDY    74  62  66 W3        29.93F
L.A. AIRPORT   CLOUDY    71  60  68 W10       29.95F
SAN DIEGO      MOSUNNY   76  59  55 W13       29.95S
BURBANK        CLOUDY    71  60  68 CALM      29.95F
ONTARIO        MOSUNNY   78  60  53 W13G20    29.93F
RIVERSIDE      SUNNY     79  61  53 VRB3      29.93F
PALM SPRINGS   PTSUNNY   97  55  24 S6        29.82F
EL CENTRO NAS  MOSUNNY   96  60  30 SE5       29.77F
IMPERIAL       SUNNY     95  63  34 E5        29.77F
BLYTHE         PTSUNNY   93  64  38 CALM      29.81F
NEEDLES        MOSUNNY   99  48  17 CALM      29.82F
$$

NVZ020-UTZ003-202100-
SOUTHERN NEVADA-UTAH

CITY           SKY/WX    TMP DP  RH WIND       PRES   REMARKS
LAS VEGAS      MOSUNNY   94  42  16 VRB3      29.88F
SALT LAKE CITY MOSUNNY   81  48  31 NW7       30.14F
$$

NMZ009-TXZ055-202100-
NEW MEXICO-WEST TEXAS

CITY           SKY/WX    TMP DP  RH WIND       PRES   REMARKS
ALBUQUERQUE    MOSUNNY   83  54  36 S5        30.13F
EL PASO        MOSUNNY   86  62  44 VRB3      30.03F
$$


........................KEY........................
SKY/WX - SKY CONDITION/WEATHER
TMP    - TEMPERATURE IN FAHRENHEIT
DP     - DEW POINT IN FAHRENHEIT
RH     - RELATIVE HUMIDITY IN PERCENT
WIND   - DIRECTION AND SPEED IN MILES PER HOUR (MPH)
VRB    - VARIABLE WIND DIRECTION
PRES   - MEAN SEA LEVEL PRESSURE IN INCHES OF MERCURY
         F - FALLING PRESSURE   R - RISING PRESSURE
         S - STEADY PRESSURE
VSB    - VISIBILITY IN MILES
HX     - HEAT INDEX IN FAHRENHEIT
WCI    - WIND CHILL INDEX IN FAHRENHEIT
TC     - TEMPERATURE IN CELSIUS WHICH IS ALSO KNOWN AS
         TEMPERATURE IN CENTIGRADE
AFB    - AIR FORCE BASE
         LUKE AFB IS LUKE AIR FORCE BASE
         DAVIS-MONTHAN IS DAVIS-MONTHAN AIR FORCE BASE
NAS    - NAVAL AIR STATION
         EL CENTRO NAS IS EL CENTRO NAVAL AIR STATION
N/A    - NOT AVAILABLE


USA.gov is the U.S. government's official web portal to all federal, state and local government web resources and services.